Total_Precipitation_Accumulation
0.81 1.37 1.70 1.57 1.55 1.51 1.31 1.28 1.16 0.97 0.93 0.96 0.87 0.85 0.90 0.88 0.85 0.72 0.58 0.47 0.45 0.42 0.37 0.34 0.29 0.29 0.33 0.37 0.44 0.52 0.59 0.76 0.88 0.96 1.07 1.24 1.40 1.57 1.73 1.83 1.71 1.55 1.52 1.69
0.89 1.21 0.95 0.86 1.00 1.05 1.13 1.17 1.03 0.87 0.75 0.74 0.75 0.78 0.80 0.75 0.73 0.62 0.50 0.41 0.33 0.27 0.26 0.22 0.19 0.20 0.23 0.26 0.30 0.38 0.47 0.54 0.67 0.85 1.10 1.31 1.58 1.66 1.74 1.86 1.89 1.81 1.74 1.92
0.94 0.87 0.61 0.69 0.89 0.92 0.94 1.00 0.91 0.82 0.70 0.65 0.63 0.79 0.77 0.71 0.66 0.58 0.45 0.36 0.28 0.22 0.19 0.15 0.14 0.17 0.21 0.21 0.22 0.30 0.42 0.54 0.76 1.00 1.33 1.62 1.88 1.96 2.00 1.94 1.96 2.02 2.07 2.16
0.88 0.65 0.58 0.69 0.76 0.80 0.90 0.67 0.61 0.60 0.70 0.71 0.62 0.90 0.68 0.57 0.57 0.51 0.43 0.39 0.31 0.23 0.18 0.15 0.15 0.15 0.17 0.21 0.26 0.38 0.56 0.75 1.00 1.33 1.70 1.96 2.21 2.33 2.16 2.10 2.11 2.10 2.07 2.12
0.74 0.60 0.58 0.66 0.55 0.52 0.61 0.51 0.59 0.61 0.62 0.55 0.43 0.60 0.58 0.47 0.53 0.45 0.38 0.37 0.36 0.29 0.23 0.20 0.21 0.22 0.27 0.35 0.43 0.59 0.86 1.16 1.42 1.64 1.83 2.05 2.19 2.22 2.17 2.09 2.07 2.01 1.99 1.97
0.54 0.47 0.49 0.46 0.39 0.40 0.44 0.52 0.66 0.67 0.69 0.71 0.38 0.47 0.57 0.45 0.43 0.39 0.36 0.33 0.30 0.28 0.28 0.28 0.30 0.37 0.45 0.52 0.67 0.85 1.05 1.34 1.52 1.63 1.72 1.90 2.04 2.09 2.08 2.05 2.05 2.05 2.02 1.93
0.50 0.42 0.34 0.30 0.36 0.38 0.42 0.71 1.03 1.07 1.02 0.76 0.36 0.52 0.61 0.46 0.36 0.32 0.33 0.32 0.29 0.34 0.38 0.38 0.48 0.63 0.70 0.74 0.84 1.00 1.09 1.29 1.40 1.44 1.51 1.63 1.69 1.75 1.78 1.77 1.74 1.68 1.65 1.65
0.48 0.47 0.31 0.26 0.33 0.38 0.38 0.59 1.00 1.11 0.96 0.69 0.49 0.73 0.67 0.44 0.36 0.33 0.33 0.31 0.34 0.45 0.54 0.64 0.78 0.88 0.95 0.97 0.94 0.96 1.11 1.16 1.16 1.21 1.19 1.29 1.36 1.42 1.47 1.45 1.44 1.47 1.53 1.56
0.38 0.39 0.23 0.18 0.21 0.29 0.37 0.41 0.47 0.69 0.65 0.70 0.65 0.83 0.76 0.45 0.39 0.34 0.34 0.36 0.43 0.58 0.79 1.01 1.18 1.28 1.36 1.29 1.12 0.99 0.98 0.98 0.96 1.06 1.12 1.15 1.21 1.24 1.25 1.27 1.20 1.29 1.35 1.36
0.30 0.37 0.28 0.19 0.22 0.24 0.31 0.41 0.54 0.80 1.00 0.97 0.85 0.96 0.93 0.65 0.53 0.45 0.46 0.56 0.71 0.92 1.22 1.48 1.70 1.82 1.79 1.61 1.36 1.10 0.95 0.89 0.87 0.92 1.02 1.09 1.09 1.08 1.05 1.07 0.99 1.04 1.14 1.15
0.23 0.36 0.32 0.25 0.27 0.31 0.34 0.50 0.62 0.79 0.87 1.12 1.26 1.24 0.98 0.88 0.77 0.74 0.81 0.97 1.18 1.45 1.65 1.81 1.97 2.01 1.75 1.58 1.34 1.09 0.94 0.94 0.97 1.00 1.02 1.03 0.98 0.96 0.93 0.89 0.84 0.86 0.93 0.93
0.20 0.30 0.36 0.23 0.21 0.26 0.45 0.66 0.87 1.20 1.10 1.05 1.28 1.32 0.94 0.87 0.91 0.95 1.07 1.12 1.24 1.40 1.43 1.52 1.60 1.56 1.51 1.46 1.29 1.12 1.03 1.02 1.07 1.10 1.12 1.04 0.96 0.90 0.90 0.85 0.74 0.73 0.70 0.69
0.30 0.45 0.52 0.45 0.47 0.49 0.57 0.60 0.68 0.86 0.98 1.05 1.32 1.39 0.91 0.82 0.83 0.98 1.16 1.22 1.29 1.33 1.24 1.24 1.26 1.32 1.35 1.31 1.19 1.16 1.13 1.14 1.14 1.13 1.05 0.97 0.89 0.80 0.76 0.66 0.59 0.64 0.65 0.71
0.29 0.48 0.60 0.69 0.63 0.58 0.65 0.61 0.55 0.67 0.97 1.02 1.19 1.17 0.95 0.87 0.84 0.93 1.07 1.16 1.12 1.05 0.99 0.98 1.06 1.15 1.21 1.18 1.14 1.09 1.04 1.09 1.19 1.25 1.16 1.05 0.94 0.84 0.80 0.70 0.61 0.59 0.61 0.68
0.21 0.26 0.28 0.27 0.26 0.35 0.55 0.65 0.63 0.62 0.69 0.91 0.90 0.82 0.78 0.74 0.75 0.77 0.81 0.79 0.71 0.65 0.67 0.71 0.77 0.78 0.75 0.71 0.76 0.80 0.85 0.96 1.11 1.25 1.24 1.11 0.94 0.83 0.77 0.73 0.65 0.62 0.61 0.61
0.14 0.16 0.15 0.15 0.15 0.23 0.39 0.49 0.51 0.48 0.48 0.57 0.63 0.62 0.53 0.50 0.54 0.56 0.58 0.53 0.49 0.45 0.43 0.42 0.44 0.44 0.43 0.39 0.38 0.40 0.47 0.62 0.87 1.13 1.11 0.92 0.76 0.62 0.58 0.60 0.61 0.60 0.57 0.59
0.10 0.13 0.18 0.17 0.13 0.20 0.42 0.43 0.41 0.42 0.34 0.35 0.41 0.40 0.36 0.39 0.46 0.47 0.52 0.54 0.41 0.33 0.31 0.31 0.31 0.30 0.30 0.29 0.29 0.31 0.38 0.50 0.66 0.78 0.76 0.67 0.56 0.53 0.57 0.60 0.55 0.57 0.58 0.57
0.09 0.12 0.19 0.20 0.22 0.48 0.69 0.58 0.49 0.45 0.27 0.20 0.21 0.23 0.27 0.37 0.41 0.43 0.41 0.42 0.41 0.30 0.23 0.22 0.22 0.22 0.26 0.27 0.31 0.35 0.39 0.44 0.48 0.51 0.53 0.48 0.46 0.48 0.51 0.52 0.52 0.59 0.65 0.63
0.13 0.21 0.28 0.31 0.38 0.57 0.63 0.54 0.54 0.53 0.38 0.18 0.15 0.16 0.15 0.15 0.18 0.21 0.22 0.21 0.21 0.18 0.15 0.14 0.13 0.13 0.16 0.16 0.17 0.18 0.20 0.22 0.23 0.21 0.22 0.24 0.24 0.26 0.29 0.30 0.37 0.48 0.55 0.59
0.15 0.21 0.32 0.35 0.44 0.57 0.45 0.28 0.29 0.42 0.53 0.16 0.09 0.09 0.07 0.07 0.11 0.13 0.14 0.15 0.13 0.10 0.11 0.11 0.10 0.11 0.12 0.13 0.12 0.10 0.11 0.11 0.12 0.11 0.12 0.14 0.15 0.15 0.16 0.20 0.25 0.30 0.32 0.38
0.14 0.21 0.27 0.33 0.52 0.71 0.50 0.30 0.28 0.48 0.52 0.15 0.07 0.05 0.04 0.07 0.07 0.08 0.10 0.13 0.12 0.11 0.11 0.12 0.11 0.11 0.12 0.13 0.12 0.12 0.12 0.11 0.13 0.16 0.18 0.18 0.17 0.18 0.19 0.20 0.23 0.26 0.27 0.31
0.18 0.25 0.29 0.42 0.72 0.90 0.68 0.46 0.43 0.35 0.16 0.09 0.05 0.03 0.03 0.04 0.04 0.06 0.08 0.11 0.10 0.10 0.11 0.11 0.11 0.11 0.12 0.12 0.12 0.13 0.14 0.14 0.14 0.16 0.17 0.19 0.20 0.20 0.20 0.21 0.23 0.26 0.27 0.27
0.13 0.17 0.24 0.37 0.58 0.60 0.52 0.41 0.30 0.23 0.12 0.05 0.04 0.03 0.03 0.03 0.03 0.05 0.08 0.07 0.08 0.08 0.08 0.10 0.11 0.11 0.13 0.13 0.12 0.12 0.14 0.15 0.15 0.16 0.17 0.19 0.21 0.21 0.19 0.21 0.24 0.25 0.27 0.29
0.11 0.11 0.14 0.15 0.20 0.22 0.23 0.22 0.15 0.12 0.08 0.04 0.03 0.04 0.04 0.04 0.04 0.04 0.07 0.08 0.08 0.08 0.09 0.09 0.11 0.13 0.14 0.14 0.14 0.16 0.16 0.15 0.15 0.17 0.19 0.20 0.20 0.20 0.19 0.20 0.22 0.24 0.27 0.30
0.10 0.13 0.15 0.15 0.10 0.09 0.11 0.13 0.12 0.08 0.05 0.04 0.03 0.04 0.04 0.05 0.06 0.06 0.07 0.10 0.11 0.10 0.11 0.14 0.15 0.14 0.14 0.16 0.18 0.21 0.21 0.18 0.16 0.17 0.18 0.17 0.17 0.18 0.19 0.20 0.20 0.21 0.23 0.29
0.06 0.11 0.16 0.16 0.11 0.11 0.11 0.10 0.09 0.07 0.05 0.04 0.04 0.04 0.05 0.05 0.07 0.07 0.08 0.09 0.12 0.13 0.13 0.15 0.17 0.17 0.16 0.16 0.18 0.20 0.23 0.24 0.23 0.20 0.17 0.16 0.16 0.17 0.17 0.18 0.19 0.21 0.22 0.28